GFSNW_925_thetae_024.txt.gz
Theta_e
303 303 304 304 305 304 303 303 303 304 304 302 303 311 310 311 312 312 313 313 313 312 315 314 316 318 318 319 319 318 318 318 320 320 321 324 324 323 318 321 318 318 321 323
303 304 304 304 304 304 303 301 300 305 305 304 304 306 310 310 311 312 313 313 312 314 315 317 316 319 319 316 319 319 323 318 320 319 319 319 322 323 322 314 315 320 322 321
304 304 304 303 303 304 302 301 303 299 300 303 306 307 310 310 310 310 310 311 314 315 315 315 318 319 317 316 317 323 317 322 321 324 323 321 321 324 322 321 322 321 321 321
304 304 304 304 303 304 303 302 301 302 303 304 306 306 308 309 309 309 309 310 313 314 316 317 318 318 316 315 318 315 315 317 320 320 322 323 324 325 324 322 323 323 323 318
305 305 304 304 303 304 303 304 305 301 305 303 304 305 307 310 310 309 311 311 311 311 312 313 314 315 313 314 314 313 313 317 318 324 325 323 324 325 325 324 324 322 320 320
305 305 304 304 303 304 304 303 304 305 304 303 302 303 304 305 307 310 310 309 310 309 308 310 309 309 310 311 313 314 314 316 317 322 323 323 325 325 325 325 325 323 322 321
305 305 304 305 304 304 304 304 303 302 306 305 304 303 305 306 308 308 307 307 309 308 309 309 308 310 309 310 312 313 317 318 316 321 322 325 324 324 324 323 326 324 323 322
305 305 305 304 303 303 304 304 304 304 305 304 304 304 305 305 305 304 307 307 306 306 309 311 311 313 314 315 314 315 316 318 321 322 326 325 329 327 325 323 325 327 324 324
305 305 305 305 305 304 304 304 304 304 305 303 304 304 304 304 303 306 307 305 306 307 310 313 313 317 319 322 321 318 318 318 321 323 326 328 326 328 328 329 331 342 337 338
304 305 305 305 305 304 304 304 303 303 303 303 302 303 304 303 303 304 304 306 306 307 310 318 313 315 315 322 322 324 331 328 324 324 329 323 325 327 333 334 333 342 340 339
304 305 305 305 305 304 304 304 303 304 305 303 303 303 304 304 302 307 304 307 307 306 312 315 313 314 313 319 324 329 330 333 333 330 331 329 331 336 331 332 343 339 343 339
303 304 304 304 304 304 304 303 302 303 304 302 304 304 304 304 303 303 302 307 308 309 309 309 314 317 317 319 325 326 330 331 334 332 338 330 337 341 345 347 348 349 349 348
302 304 304 304 304 304 304 304 303 303 304 303 302 302 303 303 303 303 305 304 306 308 309 307 311 313 319 322 326 329 329 331 333 333 336 334 331 330 339 340 340 339 340 341
304 305 305 305 305 304 304 304 302 303 303 304 303 303 302 303 304 303 303 304 305 307 308 306 306 311 317 321 322 328 328 330 334 334 333 333 330 328 333 336 334 334 332 333
303 304 305 305 305 304 303 301 302 303 303 305 305 303 304 305 308 304 304 304 305 305 307 309 312 315 317 321 323 329 327 332 332 337 331 328 329 328 333 331 330 329 330 330
304 305 305 305 305 304 303 303 304 305 304 305 307 302 304 305 310 309 306 305 305 306 307 311 313 315 318 321 326 324 324 325 326 333 328 327 328 326 325 327 328 328 327 326
305 305 305 305 305 305 303 303 305 304 304 304 307 306 303 310 311 309 307 307 306 309 312 314 315 316 318 323 324 323 326 331 329 329 329 329 328 328 325 324 325 326 327 328
306 306 307 307 306 306 306 305 305 303 303 305 307 307 308 313 314 314 311 309 313 313 314 314 317 317 320 323 322 325 327 327 328 328 327 327 326 325 325 325 324 324 326 327
309 309 309 307 307 306 306 306 306 304 305 307 307 310 312 311 314 315 315 314 316 315 316 317 316 320 323 324 324 324 325 325 324 323 322 322 323 323 324 325 325 324 322 322
308 310 309 308 309 308 308 307 306 305 305 304 304 305 309 309 316 316 316 317 317 318 315 314 316 319 318 320 321 323 323 322 322 322 322 321 321 321 321 322 324 325 325 323
308 304 306 307 309 309 309 309 305 305 306 303 302 305 309 312 316 314 317 316 314 314 316 317 317 320 320 319 320 320 321 321 321 321 321 319 318 320 322 323 324 325 325 325
307 306 307 308 309 313 316 313 306 304 310 312 314 314 311 315 316 315 316 313 313 321 319 317 317 318 318 318 318 318 318 320 321 321 322 323 324 322 323 324 324 324 325 326
311 309 312 311 310 315 318 317 316 318 317 317 318 321 317 317 314 316 319 320 323 320 316 314 315 317 317 318 320 320 319 320 320 321 322 323 324 323 323 323 324 324 324 325
311 312 311 314 316 317 318 320 320 319 318 320 320 320 321 319 321 322 323 319 318 320 319 323 323 322 321 320 320 321 321 322 322 322 323 322 322 323 323 323 323 324 324 325
313 311 310 314 315 316 318 319 317 317 315 318 320 320 317 319 320 317 319 319 317 316 318 322 321 320 320 320 320 319 318 317 317 318 320 320 320 320 322 323 324 324 323 321
314 314 316 316 317 318 319 319 318 317 316 315 315 319 320 320 317 318 317 318 319 321 320 319 319 320 319 319 319 319 317 317 317 316 314 315 315 314 314 315 318 320 318 320
313 314 314 315 316 316 317 316 316 315 316 318 317 321 322 318 321 322 318 319 319 318 318 317 316 318 319 318 317 318 315 316 311 310 309 308 308 308 309 309 313 314 315 313

GFSNW_925_thetae_027.txt.gz
Theta_e
303 304 304 304 303 304 303 300 301 303 303 300 299 305 306 309 310 310 311 312 312 313 314 315 313 314 316 317 318 319 317 311 320 321 319 321 322 323 316 317 317 315 320 320
304 304 304 303 303 304 304 298 297 304 303 304 304 305 308 309 309 309 310 311 310 313 314 314 317 318 317 316 316 321 320 318 316 316 317 317 319 321 321 319 315 322 319 319
304 304 305 304 303 304 303 301 302 298 298 301 305 305 307 309 308 309 309 310 313 313 314 313 316 317 317 314 315 320 314 314 317 319 318 318 318 320 321 320 321 323 321 320
305 305 305 304 303 304 303 303 302 299 302 302 303 303 306 310 310 309 308 309 310 312 314 316 316 315 314 312 315 312 312 317 316 318 319 320 320 319 320 320 322 323 323 317
305 305 305 304 304 304 303 304 304 304 303 304 302 302 306 308 306 307 310 310 308 309 310 311 311 311 312 312 312 310 310 317 315 319 319 321 322 321 321 321 322 320 321 317
305 305 304 304 304 304 303 303 303 304 305 304 304 303 303 303 305 307 309 307 307 308 309 308 307 307 307 309 311 310 312 315 316 319 318 320 323 322 322 322 322 322 321 320
305 305 304 304 303 303 304 304 303 303 305 305 304 303 303 304 305 306 306 305 307 307 306 307 306 306 307 308 309 310 312 314 315 318 318 325 322 321 323 322 322 320 320 319
305 305 305 305 303 304 303 304 304 304 305 304 303 304 304 304 303 303 303 304 305 304 306 309 309 309 311 310 310 310 311 313 317 320 321 322 323 324 322 321 322 322 322 321
304 305 305 305 304 304 304 304 303 304 305 304 303 303 303 303 304 304 304 302 301 305 305 309 312 313 314 310 317 311 311 312 318 320 322 326 323 331 332 329 324 323 323 322
304 304 305 305 305 304 304 303 303 303 304 301 301 303 301 302 303 303 302 303 305 305 306 310 311 312 312 316 316 317 316 316 319 321 324 324 330 336 337 331 326 337 329 325
303 304 305 305 305 304 304 303 303 303 304 303 302 303 303 303 303 304 301 303 303 303 307 309 312 312 312 313 316 319 323 326 324 321 327 326 334 336 343 339 340 336 334 334
302 303 305 305 305 304 304 304 303 302 303 303 303 303 303 302 302 302 302 303 303 304 306 308 309 312 313 313 319 316 321 324 326 325 328 329 331 334 331 332 338 342 341 345
302 304 305 305 305 304 305 303 303 303 303 303 302 302 303 302 302 303 304 303 303 304 307 308 310 313 312 316 317 316 319 322 326 331 333 334 335 332 331 334 333 332 336 341
303 304 305 305 305 306 305 305 303 303 302 304 302 303 301 303 302 302 302 303 303 307 307 308 307 311 310 313 315 318 320 323 324 330 332 332 334 330 331 332 330 332 331 331
304 305 306 306 306 305 305 305 304 303 302 305 304 303 304 304 302 302 301 302 302 304 307 309 310 310 310 309 311 320 321 324 327 330 330 330 330 328 328 331 330 329 330 329
305 306 306 306 306 306 306 302 304 303 302 304 306 301 302 304 304 306 302 302 302 304 306 308 310 309 311 314 313 315 321 324 324 330 327 328 328 327 326 329 330 329 329 329
305 307 307 307 306 306 303 304 304 304 304 303 306 306 303 305 309 307 306 303 302 304 307 310 309 310 311 309 319 318 319 325 326 327 327 328 327 328 325 326 327 327 327 325
306 308 309 309 307 306 307 306 304 304 304 304 306 306 306 311 313 313 311 306 309 309 311 312 314 315 316 316 318 324 324 326 329 329 327 327 326 325 324 324 325 325 327 328
309 308 308 307 307 306 306 306 305 304 303 304 305 309 312 308 312 313 313 313 314 312 315 316 315 314 313 319 324 324 325 326 325 324 324 323 323 322 323 323 323 323 323 324
309 308 308 308 308 309 308 307 306 305 305 301 302 304 309 308 314 316 315 315 316 317 315 314 313 318 318 319 320 322 322 322 323 323 323 322 321 320 323 324 325 324 322 322
308 304 304 307 309 309 309 308 303 302 303 299 301 301 307 309 313 313 315 314 312 313 315 317 316 315 319 319 320 320 321 321 321 320 320 319 319 321 321 322 323 324 324 325
307 306 307 307 307 311 315 314 308 305 309 310 309 309 308 311 313 314 313 311 311 318 317 316 315 312 316 319 320 321 321 321 322 322 323 324 324 324 324 324 323 324 325 325
309 307 309 307 309 318 318 316 321 321 318 316 317 320 316 314 313 315 317 320 320 317 314 313 318 318 319 320 321 321 322 322 322 323 323 323 324 324 324 324 324 324 325 326
310 310 313 316 316 319 318 320 321 318 318 317 318 318 320 318 319 320 320 318 316 318 317 321 322 320 320 320 320 320 319 320 322 322 321 322 323 323 322 322 322 322 322 323
311 313 313 315 315 314 316 315 316 316 315 315 318 317 316 316 317 316 317 318 316 316 320 321 320 319 319 319 318 315 312 310 310 310 310 311 312 316 318 317 316 319 319 319
312 313 316 314 315 315 314 312 313 314 315 313 314 318 318 320 318 319 318 316 319 321 320 319 318 319 319 316 314 310 309 307 306 306 307 307 308 310 311 311 312 311 312 312
315 316 311 311 313 313 312 311 310 311 315 317 317 320 320 316 318 319 319 321 320 318 318 316 316 317 317 314 311 310 306 305 305 306 306 306 306 306 307 307 308 309 310 311

GFSNW_925_thetae_030.txt.gz
Theta_e
303 303 304 305 303 302 303 298 299 302 303 300 298 303 304 307 309 307 309 310 312 313 314 314 313 317 317 315 316 321 320 310 318 318 318 321 322 321 314 318 317 312 315 320
304 305 305 304 304 303 304 297 297 303 302 302 301 303 305 306 309 308 308 309 312 312 313 313 316 316 316 314 316 321 318 315 315 316 317 317 319 320 316 318 314 319 319 321
304 304 304 304 303 303 304 298 300 297 299 298 303 303 303 307 308 310 308 308 310 311 312 312 314 316 315 312 316 318 314 313 315 319 319 318 317 318 319 320 321 322 320 319
304 304 304 304 304 303 303 298 301 302 300 301 304 302 302 307 307 306 308 311 308 308 311 311 312 312 311 311 313 310 311 316 316 317 317 318 319 319 319 318 321 322 323 322
305 304 304 304 304 303 303 300 304 303 303 303 304 302 302 304 304 305 307 311 308 306 308 309 309 308 310 310 310 309 308 315 315 317 318 318 319 319 320 320 318 318 321 320
305 305 304 304 304 303 303 303 303 302 304 303 304 303 303 303 303 304 308 307 307 306 308 306 305 304 305 307 309 309 309 313 315 318 317 318 319 318 319 319 318 319 319 320
304 304 304 304 304 304 303 303 303 304 305 305 304 304 303 303 303 304 305 304 304 305 304 304 304 304 305 306 307 307 309 312 313 316 317 321 318 318 320 319 320 318 318 319
304 304 305 305 304 304 304 304 303 303 303 303 303 303 303 302 301 301 302 303 302 301 304 306 306 305 308 308 308 308 308 309 313 317 318 317 318 328 334 334 331 321 320 320
304 305 305 305 304 304 305 304 304 303 304 304 302 303 302 302 301 302 302 301 300 304 303 306 309 308 309 312 312 307 308 309 312 315 320 322 322 333 334 335 338 329 329 321
302 304 305 305 305 304 304 304 303 303 304 303 301 303 302 301 303 304 301 301 303 303 306 308 308 308 310 311 314 311 310 311 312 314 320 320 320 332 335 333 331 337 336 338
301 304 305 305 305 305 304 303 303 303 303 303 303 303 303 303 303 303 301 301 301 303 306 307 306 310 310 310 308 311 311 314 314 314 319 319 327 331 340 334 334 336 336 339
301 303 305 306 305 305 305 304 303 303 303 303 302 302 302 302 302 302 302 304 301 306 305 306 307 309 310 309 312 311 314 316 319 314 315 317 329 331 330 330 335 335 334 335
302 304 306 306 306 305 306 305 304 302 303 300 299 301 302 302 302 302 303 303 302 304 301 303 306 311 310 308 311 314 313 313 317 320 321 325 329 329 329 331 332 331 332 334
303 305 306 306 306 306 306 307 305 302 302 302 300 302 301 303 302 302 302 302 301 303 306 307 308 309 308 309 310 311 311 311 314 318 320 329 330 327 327 331 330 330 330 330
305 306 306 307 307 307 306 306 306 305 301 303 303 302 303 302 302 301 301 302 301 302 306 308 310 309 309 309 309 310 309 310 313 316 319 326 328 326 326 331 331 331 331 332
307 306 307 307 307 307 306 303 302 303 303 303 306 301 303 304 302 300 300 300 301 302 305 306 308 309 307 309 312 311 312 312 315 318 321 325 326 327 327 330 329 328 330 331
307 307 308 307 308 307 304 304 305 303 303 303 305 306 303 304 304 304 302 301 302 303 305 307 307 307 309 306 311 310 311 310 314 320 323 329 327 328 325 326 329 330 329 328
308 307 308 308 308 307 306 306 305 304 302 302 306 307 305 308 309 309 304 303 303 307 307 311 311 311 309 309 309 310 312 309 313 321 325 326 325 324 324 324 325 328 329 329
308 308 307 307 306 307 306 306 305 303 301 303 304 307 309 305 309 310 311 312 314 311 313 314 312 310 310 312 317 321 319 314 314 325 325 324 326 325 325 325 324 324 324 326
309 308 306 307 307 308 305 306 305 304 303 300 302 303 308 307 313 315 315 314 315 315 314 313 312 312 314 317 319 320 323 324 322 324 325 325 325 325 325 325 325 324 323 325
309 303 303 307 308 309 309 306 304 301 303 299 301 303 307 308 312 314 313 313 310 312 314 315 313 315 317 319 321 322 323 322 321 321 322 321 322 323 324 324 324 324 324 323
307 306 306 307 307 312 314 313 308 307 310 306 307 308 305 308 312 313 312 309 309 316 315 314 314 320 319 320 320 322 323 323 324 324 324 324 324 324 324 323 323 323 324 324
309 306 308 311 312 316 318 317 317 321 319 316 315 319 315 312 313 314 317 319 319 316 314 312 319 320 318 315 315 314 314 315 321 324 323 322 321 320 322 323 324 325 324 325
307 311 311 315 317 317 317 316 316 316 317 316 316 317 318 317 315 316 320 317 315 318 316 320 318 316 314 312 311 310 310 311 313 315 317 318 315 314 314 317 320 322 322 321
310 311 312 314 314 313 313 313 313 312 314 313 315 314 313 315 317 317 315 317 315 315 321 318 316 315 313 311 310 308 308 308 307 309 310 314 314 312 311 311 312 313 312 312
313 312 313 313 312 312 311 309 308 308 312 313 314 317 316 318 318 319 320 315 317 320 319 317 316 316 312 309 307 306 305 305 306 306 306 307 307 309 309 309 309 308 307 306
314 313 308 309 308 309 309 308 307 305 311 315 315 316 318 316 317 316 314 316 315 314 312 309 310 309 308 306 304 303 303 303 303 303 304 304 306 307 307 308 307 306 305 304

GFSNW_925_thetae_033.txt.gz
Theta_e
304 304 304 304 303 302 303 300 303 302 303 304 304 305 304 306 308 309 310 311 313 315 315 315 317 320 319 314 319 324 321 321 326 325 324 324 324 324 325 325 328 325 324 324
304 304 304 304 303 303 303 303 301 302 302 305 305 304 305 305 308 310 310 311 312 313 315 316 317 318 315 315 319 321 320 323 328 326 324 322 325 325 325 325 326 328 325 325
304 304 303 303 303 303 303 304 304 303 302 302 303 303 305 305 306 308 310 311 309 311 314 314 315 315 314 312 315 317 318 320 325 328 327 323 325 324 325 325 328 327 327 325
304 304 304 304 303 303 303 304 304 303 304 303 304 304 304 306 306 304 307 309 310 309 312 312 313 312 312 312 313 313 317 321 319 319 318 319 321 322 322 325 327 329 327 328
304 303 303 304 304 303 303 305 305 303 302 304 305 304 304 304 304 304 304 310 310 308 311 310 311 309 311 312 313 313 313 316 317 317 316 318 321 321 321 322 323 323 325 327
304 305 303 303 304 304 304 304 304 303 303 304 305 305 304 304 304 304 306 306 306 306 308 306 307 307 307 308 310 311 313 314 315 316 317 318 321 321 322 322 322 323 325 324
304 305 305 304 304 304 303 302 303 305 305 304 303 303 303 304 304 305 305 304 305 304 304 305 306 307 308 308 308 309 312 317 315 313 315 319 321 321 322 325 323 323 323 323
301 303 305 305 304 304 305 304 303 304 306 303 304 303 303 303 304 303 303 304 304 303 305 307 305 306 309 309 308 309 310 311 314 313 316 317 317 319 328 334 329 334 330 324
300 302 305 305 305 304 305 304 304 304 305 304 303 304 303 303 302 303 303 303 303 306 307 308 307 305 308 307 312 311 310 310 312 314 313 316 321 322 327 336 331 338 340 339
300 300 305 306 306 305 305 304 303 303 304 303 303 304 305 303 304 304 303 304 304 306 307 307 307 308 309 307 307 314 312 311 312 312 314 314 316 323 335 337 332 340 341 343
300 301 304 306 306 306 305 305 303 303 304 303 303 303 304 303 303 305 303 304 305 306 307 308 307 309 309 312 309 308 311 314 314 312 313 312 316 318 322 335 337 336 338 341
302 304 306 307 307 306 307 307 305 303 303 304 303 302 302 302 303 303 303 304 305 306 308 307 307 311 311 311 312 311 313 312 315 314 311 314 317 322 323 330 333 335 339 340
303 305 307 307 307 307 308 307 305 302 303 303 302 303 302 302 302 302 303 303 303 304 305 306 308 308 308 310 311 312 311 314 316 315 313 316 315 318 320 332 335 337 337 339
303 305 307 307 307 307 308 307 306 303 302 304 304 302 302 302 302 302 302 303 303 304 305 305 307 311 310 310 310 312 311 312 313 314 314 315 316 317 322 326 330 334 335 335
304 306 306 307 307 308 308 307 306 306 303 306 304 304 303 302 302 302 302 302 303 304 305 307 310 308 308 309 310 310 310 312 314 313 313 317 319 319 323 331 331 335 333 336
307 307 307 307 307 308 306 305 303 303 303 304 305 304 304 304 301 302 303 303 303 303 304 305 307 306 307 311 313 310 310 311 312 313 312 314 317 319 323 330 334 332 331 337
307 307 307 308 307 308 305 305 305 303 303 304 305 305 306 305 304 303 302 302 303 303 304 305 306 307 308 306 310 309 310 311 312 313 313 315 315 320 327 330 332 329 331 336
308 307 307 308 307 307 306 306 305 303 302 302 306 306 307 307 311 313 305 305 303 304 304 306 307 308 306 307 308 309 310 312 310 311 311 313 317 327 329 327 329 332 335 336
307 307 307 307 307 307 306 306 304 302 302 305 305 309 311 307 311 314 312 305 309 307 306 310 311 307 309 310 311 313 319 314 312 311 312 314 322 326 327 328 329 333 335 336
308 307 307 311 307 306 305 305 304 303 303 301 303 304 308 307 311 314 314 314 312 312 311 312 308 308 312 316 322 324 319 317 317 319 325 325 324 327 329 328 327 327 328 330
308 308 309 307 307 308 310 306 306 303 304 300 301 303 306 308 311 314 311 312 308 313 314 313 310 312 314 313 315 321 324 324 324 324 324 324 325 326 328 330 329 329 329 328
307 307 307 307 310 313 316 315 310 309 314 309 308 309 304 307 310 313 313 313 312 319 315 314 313 315 313 312 313 313 316 319 319 318 320 322 325 325 326 326 326 326 326 327
308 308 313 314 315 314 316 315 316 318 319 318 317 320 314 313 314 315 318 320 319 317 315 312 314 314 313 312 313 312 311 311 313 317 315 314 315 316 321 324 324 324 323 320
313 315 314 317 316 314 313 314 314 314 317 315 318 319 318 317 318 318 319 318 315 319 317 315 312 314 313 310 310 313 312 311 311 311 311 312 312 311 310 311 313 316 315 315
316 315 315 316 314 313 312 312 311 311 311 316 319 319 317 319 319 318 316 319 317 315 318 318 316 315 310 308 308 308 309 309 311 311 310 310 310 309 308 307 308 310 310 311
317 315 315 314 312 312 311 311 310 309 311 317 317 318 318 318 317 317 316 316 316 315 313 311 311 310 308 306 306 306 306 307 307 307 308 308 308 308 307 306 307 307 308 308
315 315 312 313 313 312 310 309 310 309 312 316 315 313 316 314 314 314 310 310 309 310 309 307 306 306 306 306 305 304 305 306 307 306 306 307 306 307 307 308 305 306 306 306

GFSNW_925_thetae_036.txt.gz
Theta_e
304 304 303 303 303 303 305 306 306 304 304 307 307 307 306 306 307 308 310 311 311 316 317 319 321 324 322 318 322 326 327 328 331 328 326 325 326 327 327 327 330 327 329 328
304 303 304 303 303 303 305 307 307 304 304 306 306 306 306 306 307 308 310 312 312 313 316 319 319 321 316 315 320 326 326 327 331 331 328 327 327 327 327 327 328 331 329 327
304 303 303 304 303 302 305 307 307 306 306 305 306 306 306 306 306 306 306 311 312 314 313 314 317 318 315 314 315 317 320 328 330 332 331 328 328 327 327 327 330 329 330 329
304 304 304 303 304 303 305 306 306 305 307 306 306 306 306 306 306 306 306 309 309 311 314 313 314 315 314 315 315 317 320 328 327 329 326 325 329 327 328 329 329 330 329 330
303 303 304 304 304 303 306 306 306 306 306 305 305 305 306 305 305 305 306 309 307 307 312 313 313 312 314 314 315 316 316 325 323 326 323 323 325 326 327 328 329 330 330 330
301 302 302 304 305 304 306 305 305 306 305 306 306 306 304 304 305 305 306 306 306 306 307 309 309 309 310 311 312 314 315 318 322 327 325 323 326 326 327 327 328 329 331 330
301 301 302 304 305 305 304 304 305 306 307 306 305 305 305 305 304 305 306 305 306 306 306 306 308 309 309 309 310 312 315 316 319 323 324 327 326 326 326 326 327 327 328 328
301 300 301 305 305 305 305 304 304 305 307 305 306 305 305 306 305 305 305 305 306 306 307 309 310 309 309 309 309 310 312 315 317 321 322 324 324 322 324 326 328 327 328 328
300 300 302 305 306 306 306 305 302 305 306 306 305 306 305 306 305 305 305 305 306 307 309 309 310 308 309 310 310 310 311 313 315 317 321 324 323 323 323 325 332 330 334 334
301 301 305 306 307 307 307 306 304 302 305 304 305 307 307 305 305 306 305 305 306 306 308 310 309 308 308 309 309 315 311 313 314 314 317 319 320 325 330 330 342 337 337 339
302 303 306 307 307 307 308 307 306 303 304 304 305 305 305 305 305 306 305 306 307 308 309 309 308 308 309 310 310 310 313 313 313 314 315 316 316 317 321 326 326 332 333 332
303 306 307 306 307 307 308 308 306 305 303 304 305 305 305 304 304 306 305 305 305 307 310 310 310 311 311 312 312 311 313 312 313 313 313 314 316 317 320 320 322 324 329 330
304 307 306 306 307 307 308 308 304 302 304 304 305 308 306 305 305 304 305 304 304 305 306 307 308 310 309 310 310 310 311 312 314 314 313 314 315 315 317 317 319 323 325 326
306 308 307 307 307 308 308 308 306 303 303 305 308 304 305 305 304 304 304 304 304 304 306 308 309 310 309 312 312 312 312 313 314 315 315 315 314 314 315 317 317 317 320 326
306 308 307 307 308 308 308 308 306 306 305 308 308 306 307 306 305 304 304 304 304 304 307 307 309 308 308 308 310 313 311 313 314 315 314 315 316 315 315 315 314 321 323 328
308 307 307 307 308 308 306 308 304 304 304 306 309 307 307 306 304 304 305 305 305 306 306 306 306 306 307 311 312 311 311 311 312 314 313 314 315 315 316 318 320 322 324 330
307 307 308 309 308 308 309 309 306 304 304 305 308 309 308 307 307 304 305 304 305 304 302 303 305 306 306 307 309 308 309 311 311 311 312 315 314 315 315 317 319 322 323 330
307 307 308 308 307 307 308 306 305 303 303 304 308 310 311 309 311 313 305 305 303 302 301 302 304 304 304 308 308 309 310 311 310 310 311 311 313 315 317 318 322 327 330 332
307 307 308 309 309 309 308 305 303 302 303 306 306 310 314 309 311 313 309 306 307 305 305 304 308 306 310 306 311 319 323 320 315 315 311 310 312 314 315 317 327 330 330 333
308 309 312 315 308 306 305 304 305 304 303 302 304 304 308 307 311 313 314 312 311 314 312 312 309 310 311 311 315 316 319 318 314 315 314 314 316 317 319 325 328 327 330 334
312 315 315 309 308 306 310 310 308 307 308 304 304 305 308 308 312 313 311 313 311 317 320 318 315 313 313 311 313 315 315 315 316 319 320 322 321 323 325 327 327 328 326 327
311 311 308 310 313 317 317 316 314 314 320 318 312 313 308 309 309 315 318 320 319 322 318 316 314 313 313 312 311 313 315 314 314 314 314 315 317 322 324 326 324 323 322 321
309 312 317 317 315 316 316 317 316 318 319 319 318 322 318 317 316 319 321 322 322 318 318 313 313 315 314 312 311 311 312 314 314 314 313 313 313 312 314 317 318 318 319 320
317 316 315 318 318 318 316 317 317 315 316 317 320 321 321 321 320 318 320 318 317 320 317 315 314 314 313 311 312 312 312 312 312 311 311 311 311 311 310 311 312 314 316 317
317 316 319 317 315 315 314 314 315 315 315 319 321 321 318 319 319 318 316 319 320 317 316 314 311 311 311 310 311 311 312 312 312 312 312 312 310 310 310 310 311 312 310 312
315 315 315 315 315 314 313 313 314 314 316 320 318 319 319 316 315 314 314 316 315 313 312 310 308 308 311 310 310 311 310 311 311 311 311 310 310 310 310 310 310 310 310 310
316 315 314 314 315 314 314 313 312 312 314 316 316 315 315 313 312 313 313 314 313 314 311 308 309 309 309 309 308 308 308 309 309 308 309 309 309 309 310 311 310 308 308 308

GFSNW_925_thetae_042.txt.gz
Theta_e
302 302 302 303 302 304 306 310 315 312 309 311 311 310 310 307 309 308 308 308 308 312 314 316 319 323 325 325 322 326 329 327 331 331 331 329 329 328 330 332 335 331 334 332
302 301 301 302 302 302 306 312 314 312 310 311 310 310 309 308 309 309 309 308 307 308 310 314 319 320 320 320 321 323 325 331 332 332 334 331 330 329 329 331 330 336 334 331
302 302 302 302 302 301 306 312 314 312 310 311 310 310 309 308 307 309 309 310 309 309 310 311 316 316 317 318 320 328 322 329 333 335 336 334 333 329 330 329 333 332 333 333
302 302 302 303 302 303 307 310 311 310 311 310 311 311 309 309 310 309 308 308 311 312 310 311 313 315 315 317 322 322 325 332 332 333 333 334 330 329 330 331 333 334 332 333
302 302 302 304 304 304 307 310 309 307 309 310 310 311 311 310 308 308 307 308 310 311 310 310 311 311 313 318 317 317 322 329 331 334 333 333 335 331 330 330 330 331 332 332
301 301 301 303 305 305 306 308 306 306 307 309 310 310 309 309 309 308 307 308 308 308 308 308 308 308 310 313 314 316 320 325 329 334 334 334 336 334 331 331 331 331 334 335
301 302 304 306 306 306 307 307 305 304 308 309 310 310 309 309 310 309 307 307 307 307 309 308 308 309 310 311 312 314 317 321 326 331 333 339 335 334 332 332 331 331 332 335
303 305 306 306 306 306 307 308 304 304 307 308 308 308 310 310 310 310 309 307 308 308 308 309 310 312 312 312 313 313 315 317 323 330 333 334 334 333 333 332 333 331 334 333
303 306 307 307 307 307 307 308 307 302 305 308 308 309 309 310 312 309 308 308 308 308 307 310 312 315 317 312 314 314 314 317 320 326 330 334 334 331 330 331 333 334 332 332
305 307 307 307 307 307 307 308 308 303 305 304 307 310 309 309 310 310 309 309 309 309 311 312 313 313 313 314 314 315 315 316 319 322 326 329 330 327 329 333 341 337 338 337
306 306 307 307 307 307 308 309 308 305 305 305 307 308 309 310 309 311 309 309 311 312 314 315 316 316 315 313 315 317 316 316 318 320 323 327 324 325 332 334 330 328 330 331
306 306 307 307 307 308 308 309 309 308 304 307 307 308 307 308 308 309 309 310 308 309 312 314 311 313 312 313 314 314 314 317 319 319 320 326 323 322 322 322 324 324 324 324
307 307 307 307 308 308 308 309 307 305 305 306 307 310 309 308 308 308 309 308 307 307 307 308 309 312 312 312 312 314 314 315 316 316 317 319 318 318 318 319 319 319 319 320
307 308 308 308 308 308 308 309 307 305 305 308 311 310 310 309 309 308 307 307 306 307 307 309 311 311 311 313 312 312 313 314 315 315 316 317 316 316 317 317 318 318 318 319
308 308 308 308 308 308 310 310 307 306 308 310 311 310 309 308 308 308 308 308 309 309 308 308 309 309 309 310 311 312 312 313 315 318 317 319 319 318 318 318 318 318 319 320
308 308 308 308 308 311 311 311 308 308 306 308 311 310 310 309 307 307 307 306 307 307 306 305 306 306 308 311 311 309 311 310 310 312 312 314 315 316 315 318 319 318 318 321
308 308 309 310 310 312 311 311 309 307 307 309 312 316 311 309 308 306 307 306 304 303 303 303 303 304 306 307 310 309 308 309 308 308 309 312 313 314 314 315 316 317 318 319
309 308 308 308 309 311 311 307 306 306 308 307 311 315 316 311 313 311 305 305 303 303 305 304 304 304 303 307 308 311 312 314 318 320 319 314 314 315 314 314 314 316 318 318
309 309 311 313 313 314 311 305 306 307 308 310 313 314 320 314 314 311 308 304 308 304 306 308 305 304 309 310 313 313 312 315 319 321 319 319 318 315 315 314 315 316 317 317
308 310 315 317 314 307 308 308 311 312 313 312 317 313 317 315 316 316 316 310 316 315 316 312 315 313 312 313 312 313 312 315 318 319 317 315 316 314 314 314 315 316 317 319
313 320 320 314 309 312 313 323 321 321 323 319 317 320 321 316 319 318 317 322 319 326 316 317 316 313 314 312 313 312 312 312 314 316 317 316 318 315 314 315 317 319 321 322
316 317 318 315 316 320 321 320 321 323 326 321 323 325 320 320 317 319 322 324 321 316 315 316 315 315 314 314 313 312 312 312 312 314 314 315 315 316 316 317 318 317 316 317
319 320 321 321 320 323 322 323 322 323 320 319 320 324 322 325 322 326 323 319 321 316 316 317 315 316 315 314 312 311 311 311 313 313 313 313 314 312 313 314 314 314 315 314
321 319 320 320 319 318 318 318 318 317 317 318 322 324 325 323 320 318 319 320 316 317 318 317 315 315 315 314 311 310 309 310 311 313 313 312 311 312 312 312 312 313 314 313
319 319 323 319 318 318 317 316 316 316 317 318 321 322 321 319 318 316 316 317 317 316 317 315 316 315 314 313 312 311 309 308 307 310 312 312 312 310 310 310 311 310 311 313
319 318 319 318 318 317 315 315 314 314 316 318 319 318 318 317 315 315 315 317 316 316 316 316 313 315 315 313 311 312 309 307 306 306 309 311 310 311 310 309 308 309 309 309
319 319 318 319 317 316 315 315 314 314 316 316 316 315 316 314 313 314 312 312 311 310 313 312 313 313 313 312 311 309 308 308 306 305 308 308 310 309 310 311 309 307 308 309

GFSNW_925_thetae_048.txt.gz
Theta_e
301 301 301 302 300 302 302 304 306 310 309 306 304 307 308 309 309 308 308 308 308 308 306 309 309 312 312 311 315 315 315 319 323 323 322 321 332 321 321 323 320 318 320 325
301 301 301 302 300 303 305 303 304 309 307 305 306 306 309 309 310 310 308 308 307 306 307 309 312 311 310 312 314 316 315 322 323 323 320 320 321 328 320 317 317 319 323 324
300 300 302 304 304 304 305 303 306 303 302 302 306 307 309 310 310 310 309 308 306 307 307 308 310 311 312 311 310 312 315 319 320 324 323 321 322 323 322 321 321 321 321 323
304 304 305 305 305 305 305 302 304 304 305 305 305 306 307 310 310 308 308 309 308 308 308 307 309 310 309 308 311 312 313 317 314 315 317 320 322 327 325 321 321 323 322 324
304 306 306 306 306 305 306 304 305 301 303 305 306 307 309 311 311 310 310 310 309 309 306 307 307 307 308 309 309 310 310 313 312 313 321 325 327 331 330 324 323 323 321 323
306 306 306 306 306 306 306 306 306 305 307 307 308 308 309 309 309 310 310 309 310 309 307 305 304 306 307 309 310 310 311 310 311 319 326 330 332 326 331 326 323 322 324 322
307 307 306 306 306 306 306 306 307 305 308 308 309 308 309 311 310 311 310 309 309 309 307 307 304 304 305 306 308 309 311 311 310 317 323 334 327 322 323 329 328 328 334 335
307 306 306 306 306 306 307 307 306 305 306 307 308 309 310 309 308 310 309 309 308 307 306 305 306 307 308 309 308 308 310 313 310 321 329 331 327 323 322 322 326 322 328 337
307 307 307 307 307 307 307 307 308 303 306 307 307 309 308 310 310 310 308 307 306 307 306 306 312 315 318 318 317 309 311 313 311 316 331 335 324 322 321 325 325 320 322 324
306 307 307 307 307 307 307 308 308 304 305 305 306 309 309 308 309 310 309 308 307 307 310 312 315 318 316 319 320 315 314 316 316 318 331 329 319 320 322 328 327 319 319 321
307 306 307 307 307 307 308 308 309 307 305 305 306 307 309 309 310 311 309 307 306 305 309 312 312 314 314 314 315 316 318 320 318 319 327 329 316 319 321 316 316 317 317 317
307 307 307 308 308 308 309 309 309 308 306 307 307 307 307 307 307 308 309 308 307 306 307 307 309 311 312 312 316 311 315 313 316 315 319 316 314 318 316 313 314 313 314 316
307 307 308 308 308 309 309 309 308 307 305 305 307 310 310 308 308 308 310 308 307 306 303 304 308 310 308 311 311 311 310 310 311 309 311 311 311 311 311 310 311 311 311 313
306 307 308 308 308 308 309 308 308 306 305 305 307 309 309 308 307 307 307 308 306 306 303 303 305 308 306 308 307 308 310 309 310 310 309 310 311 311 310 311 311 311 311 311
307 308 308 308 309 309 309 308 306 306 306 305 304 306 308 307 306 305 305 305 306 307 307 305 306 307 305 303 304 310 310 310 311 312 310 310 309 309 310 312 312 312 311 311
308 308 309 310 311 311 311 309 307 307 307 304 307 307 310 308 306 305 304 305 304 304 304 304 304 304 305 305 306 308 307 308 312 316 311 310 309 309 310 313 312 312 312 311
308 309 310 310 310 310 311 309 309 308 308 307 309 312 310 310 308 305 305 303 302 303 303 304 304 305 305 304 307 306 311 310 311 313 316 314 313 315 313 311 312 313 314 313
309 309 310 310 310 309 309 306 307 308 308 305 313 315 315 311 312 310 302 304 305 304 304 305 304 304 302 307 307 310 310 310 311 313 314 313 313 313 313 313 313 315 316 314
310 310 310 312 311 312 311 307 307 307 308 311 314 317 320 310 313 308 306 302 309 304 307 309 306 303 308 306 309 309 312 310 310 311 312 314 315 315 315 314 314 314 313 313
309 310 313 314 313 310 309 308 309 310 306 306 312 313 319 317 315 314 312 309 313 315 310 307 310 313 311 310 309 308 311 311 310 311 311 312 313 312 312 312 312 310 311 312
311 313 314 312 310 312 311 316 313 311 314 311 309 314 318 315 318 317 315 317 312 310 311 310 313 313 312 311 309 306 307 311 310 309 309 310 311 310 310 310 310 309 309 311
316 314 313 312 310 313 319 317 317 317 317 316 317 315 316 316 312 315 317 318 315 315 310 310 313 314 311 309 309 306 304 310 310 309 309 309 309 309 309 308 308 307 307 307
314 316 318 317 314 313 320 318 314 313 311 310 315 319 316 316 314 316 317 317 316 309 310 312 313 310 309 308 307 307 304 305 310 308 308 308 308 308 306 307 306 306 306 306
316 322 310 316 317 317 315 311 310 310 309 309 311 320 318 316 318 313 317 313 309 310 311 311 309 308 307 306 307 306 305 303 305 310 308 307 307 307 306 305 304 304 304 304
321 317 315 319 315 311 311 310 309 309 308 309 313 317 311 311 313 310 311 312 310 311 310 308 307 307 306 306 306 306 305 303 303 304 309 308 307 307 307 305 304 304 303 303
321 318 315 314 312 311 310 310 309 307 309 309 310 312 312 311 308 311 311 310 304 308 308 306 306 308 306 305 305 305 307 303 303 304 307 309 309 308 308 307 306 305 304 304
319 319 314 313 312 311 311 309 308 308 307 310 309 311 314 308 310 310 308 308 305 303 304 305 306 307 306 305 306 306 305 304 303 305 305 304 307 304 303 301 302 302 304 303